Regional Weather Roundup
Issued by NWS

Home | Current Version | Previous Version | Graphics & Text | Print | Product List | Glossary On
Versions: 1 2 3 4 5 6 7 8 9 10 11 12 13 14 15 16 17 18 19 20 21 22 23 24 25 26 27 28 29 30 31 32 33 34 35 36 37 38 39 40 41 42 43 44 45 46 47 48 49 50
000
ASUS43 KOAX 211010
RWRNE

WEATHER ROUNDUP FOR NEBRASKA
NATIONAL WEATHER SERVICE OMAHA NE
500 AM CDT TUE OCT 21 2014

NOTES: SATELLITE DATA IS BEING USED TO AUGMENT CLOUD COVER ABOVE
       12000 FEET.
       "FAIR" INDICATES FEW OR NO CLOUDS BELOW 12,000 FEET WITH NO
       SIGNIFICANT WEATHER AND/OR OBSTRUCTIONS TO VISIBILITY.

  * THESE STATIONS DO NOT REPORT WEATHER SUCH AS RAIN...SNOW OR FOG.

NEZ001>004-019>022-054>056-211100-
NEBRASKA PANHANDLE

CITY           SKY/WX    TMP DP  RH WIND       PRES   REMARKS
SCOTTSBLUFF    CLEAR     49  41  74 E7        29.96F
ALLIANCE       CLEAR     48  42  80 S8        29.97F
CHADRON        CLEAR     57  42  57 VRB3      29.90S
KIMBALL        CLEAR     49  41  74 S9        30.00S
SIDNEY         CLEAR     47  41  80 S7        30.01F
$$

NEZ057>060-069>072-079>082-211100-
SOUTHWEST NEBRASKA

CITY           SKY/WX    TMP DP  RH WIND       PRES   REMARKS
NORTH PLATTE   CLEAR     47  38  71 CALM      30.04S
IMPERIAL       CLEAR     53  40  61 S10       30.03F
LEXINGTON      CLEAR     42  39  87 CALM      30.06S
MCCOOK         CLEAR     45  38  76 CALM      30.06S
OGALLALA       CLEAR     46  39  76 CALM      30.02F
$$

NEZ005>010-023>029-035>040-094-211100-
NORTH CENTRAL NEBRASKA

CITY           SKY/WX    TMP DP  RH WIND       PRES   REMARKS
VALENTINE      CLEAR     50  39  66 S6        29.96S
AINSWORTH      CLEAR     51  40  66 S9        29.99S
BROKEN BOW     CLEAR     44  39  82 SE5       30.04S
O`NEILL        CLEAR     49  42  78 S8        30.02S
ORD            CLEAR     36  34  92 CALM      30.04F
THEDFORD       CLEAR     52  40  63 CALM      30.02S
$$

NEZ041-046>049-061>064-073>077-083>087-211100-
SOUTH CENTRAL NEBRASKA

CITY           SKY/WX    TMP DP  RH WIND       PRES   REMARKS
GRAND ISLAND   CLEAR     49  40  71 S8        30.07F
AURORA         CLEAR     48  38  67 S7        30.07F
HASTINGS       CLEAR     50  39  66 S7        30.07S
HEBRON         CLEAR     38  34  88 CALM      30.09S
HOLDREGE       CLEAR     46  39  76 CALM      30.07S
KEARNEY *      CLEAR     45  37  76 CALM      30.07F
YORK           CLEAR     45  37  76 SE6       30.08F
$$

NEZ011>018-030>034-042>045-211100-
NORTHEAST NEBRASKA

CITY           SKY/WX    TMP DP  RH WIND       PRES   REMARKS
NORFOLK        CLEAR     42  35  76 CALM      30.07S
ALBION         CLEAR     38  34  85 CALM      30.07R
BLAIR          CLEAR     49  41  73 CALM      30.09R
COLUMBUS *     CLEAR     37  30  75 CALM      30.10R
FREMONT        CLEAR     40  38  93 CALM      30.10R
TEKAMAH        CLEAR     37  34  89 CALM      30.10R
WAYNE          CLEAR     37  34  90 SW3       30.09S
$$

NEZ050>053-065>068-078-088>093-211100-
SOUTHEAST NEBRASKA

CITY           SKY/WX    TMP DP  RH WIND       PRES   REMARKS
LINCOLN        CLEAR     38  35  89 N3        30.11S
OMAHA EPPLEY   CLEAR     43  39  86 CALM      30.10R
BEATRICE       CLEAR     39  37  91 CALM      30.10R FOG
FALLS CITY     CLEAR     40  37  89 W3        30.09S
NEBRASKA CITY  CLEAR     50  32  50 SW5       30.09S
PLATTSMOUTH    CLEAR     48  36  62 SW3       30.09R
$$

NEZ044-045-051>053-067-211100-
OMAHA AREA

CITY           SKY/WX    TMP DP  RH WIND       PRES   REMARKS
OMAHA EPPLEY   CLEAR     43  39  86 CALM      30.10R
BLAIR          CLEAR     49  41  73 CALM      30.09R
FREMONT        CLEAR     40  38  93 CALM      30.10R
MILLARD        CLEAR     42  40  96 CALM      30.09S
OFFUTT AFB     CLEAR     37  37 100 NW6       30.09R WCI  32
PLATTSMOUTH    CLEAR     48  36  62 SW3       30.09R
WAHOO          FAIR      41  37  87 CALM      30.09S
$$



USA.gov is the U.S. government's official web portal to all federal, state and local government web resources and services.